Back to catalog

STARLINK-33585

AliveCommunicationsVLEO
NORAD 62782·PAYLOAD·🇺🇸 United States

Launched Jan 21, 2025 from Vandenberg Space Force Base

Loading…

Next Passes (next 24 hours)

TLE

FreshSource: CelesTrak SupGP

Epoch: Sep 14, 2026, 22:58 UTC

1 62782C 25015AA  26257.95743056 -.00068055  00000+0 -21882-2 0  2574
2 62782  53.1571 161.4616 0001301  90.2698 325.3008 15.31739609    19

Track STARLINK-33585 in real time with AllMySat

Download on the App Store